星链-30283 (STARLINK-30283 )

导读

STARLINK-30283是美国SpaceX公司星链(Starlink)卫星互联网星座的成员,于2023年8月22日发射入轨。星链项目旨在通过低地球轨道部署大规模卫星星座,为全球尤其是偏远地区提供高速、低延迟的宽带互联网接入服务。作为第二代星链卫星的一员,STARLINK-30283延续了星链先进的相控阵天线和星间激光通信技术,助力提升星座整体容量与网络可靠性,推动星链实现全球覆盖的战略目标。

基本信息
目录编号:
57680
目录名称:
STARLINK-30283
国际标识:
2023-124T
轨道中心:
EARTH
卫星名称:
星链-30283
卫星全名:
星链-30283 (STARLINK-30283 )
卫星状态:
在轨 (已飞行1116 天)
发射日期:
2023-08-22 UTC
国别 :
美国 (US)
星等 :
--
该卫星已列入 空间交会检测服务 Space Conjunction Data Service (SCDS) ,当前飞行风险评估等级: 无高风险
轨道信息
数据来源 国际轨道数据
星历时间: 2026-09-11T14:00:02+0800
8小时前
查看轨道信息
半长轴: 6779.395km
偏心率: 0.0001399
轨道倾角: 53.160°
近地点辐角 99.984°
升交点赤经 61.374°
平近点角 33.475°
近地点: 400.309km
远地点: 402.207km
周期: 92.586分钟
每日圈数: 15.553079
详细信息
固有亮度:
5
最大亮度:
0.3
卫星平台:
Starlink v2.0 mini
覆盖范围:
全球
运营商:
太空探索技术公司
运营商所在国:
美国
制造商(研发单位):
太空探索技术公司
制造商所在国:
美国
使用方式:
暂无
卫星简介
星链(Starlink)计划是由太空探索技术公司(SpaceX)提出的一个巨型低轨卫星互联网星座项目,计划在2019年至2024年间在太空搭建由约1.2万颗卫星组成的“星链”网络,其中1584颗将部署在地球上空550千米处的近地轨道,并从2020年开始工作。该卫星仍在工作。
2D轨道图
3D轨道图
轨道高度分析图
轨道倾角分析图
轨道综合分析图
查看轨道综合分析图
与全量物体交会距离演化趋势
与全量物体交会风险概率演化趋势